Location: Peterborough
(44.3091°N, 78.3197°W)
Time: 15:47:01
(UTC-04:00)

Transit 4A - Pass Details

Date: 30 March 2023
Orbit: 864 x 980 km, 66.8° (Epoch: 04 June)

Event Time Altitude Azimuth Distance (km) Brightness Sun altitude
Rises 07:47:24 0° 244° (WSW) 3,441 10.3 7.9°
Reaches altitude 10° 07:50:10 10° 256° (WSW) 2,515 9.6 8.4°
Maximum altitude 07:55:13 30° 316° (NW) 1,535 8.8 9.3°
Drops below altitude 10° 08:00:23 10° 17° (NNE) 2,576 10.4 10.2°
Sets 08:03:16 0° 28° (NNE) 3,539 11.3 10.8°
